#timestamp,LO_Frequency,Hit,StdDev 
1512288015.9,286046999.9,N
1512288035.7,286047004.2,N
1512288055.5,286047000.4,N
1512288075.3,286047000.9,N
1512288095.2,286046999.2,N
1512288115.0,286047000.6,N
1512288115.9,286047000.6,N
1512288135.7,286047001.5,N
1512288155.6,286047002.0,N
1512288175.4,286047002.0,N
1512288195.2,286047004.1,N
1512288215.1,286047002.1,N
1512288216.0,286047002.1,N
1512288235.8,286046998.7,N
1512288255.6,286046996.6,N
1512288275.5,286046999.4,N
1512288295.3,286046999.0,N
1512288315.1,286046999.0,N
1512288335.9,286046998.6,N
1512288355.7,286047002.2,N
1512288375.5,286046998.9,N
1512288395.4,286046995.5,N
1512288415.2,286046996.4,N
1512288435.0,286046997.2,N
1512288435.9,286046997.2,N
1512288455.8,286046997.2,N
1512288475.6,286047002.5,N
1512288495.4,286046999.1,N
1512288515.2,286046999.1,N
1512288535.1,286047000.2,N
1512288536.0,286047000.2,N
1512288555.8,286047001.1,N
1512288575.6,286047000.0,N
1512288595.5,286046995.7,N
1512288615.3,286046995.9,N
1512288635.1,286046997.0,N
1512288655.9,286046999.8,N
1512288675.7,286046999.9,N
1512288695.5,286047002.4,N
1512288715.4,286047002.4,N
1512288735.2,286046998.7,N
1512288755.0,286047000.7,N
1512288755.9,286047000.7,N
1512288775.8,286047000.1,N
1512288795.6,286047000.3,N
1512288815.4,286047000.7,N
1512288835.3,286046998.4,N
1512288855.1,286046999.2,N
1512288856.0,286046999.2,N
1512288875.8,286046999.0,N
1512288895.7,286046998.5,N
1512288915.5,286047002.8,N
1512288935.3,286047004.0,N
1512288955.1,286047001.6,N
1512288975.9,286046999.9,N
1512288995.7,286047004.3,N
1512289015.5,286047003.8,N
1512289035.4,286047005.7,N
1512289055.2,286047001.4,N
1512289075.0,286047003.9,N
1512289075.9,286047003.9,N
1512289095.8,286047001.4,N
1512289115.6,286047001.5,N
1512289135.4,286047002.6,N
1512289155.3,286047001.3,N
1512289175.1,286047006.0,N
1512289176.0,286047006.0,N
1512289195.8,286047001.8,N
1512289215.7,286046999.9,N
1512289235.5,286046999.7,N
1512289255.3,286046998.1,N
1512289275.1,286046999.3,N
1512289295.9,286046998.4,N
1512289315.7,286047000.1,N
1512289335.5,286046998.4,N
1512289355.4,286047002.8,N
1512289375.2,286047002.1,N
1512289395.0,286047002.3,N
1512289395.9,286047002.3,N
1512289415.8,286047002.2,N
1512289435.6,286047001.8,N
1512289455.4,286047000.0,N
1512289475.3,286046998.4,N
1512289495.1,286046996.7,N
1512289496.0,286046996.7,N
1512289515.8,286046995.3,N
1512289535.7,286046998.4,N
1512289555.5,286047000.8,N
1512289575.3,286047001.3,N
1512289595.2,286047002.5,N
1512289615.9,286047004.1,N
1512289635.7,286047001.9,N
1512289655.6,286047002.1,N
1512289675.4,286047002.2,N
1512289695.2,286047000.4,N
1512289715.0,286047002.6,N
1512289716.0,286047002.6,N
1512289735.8,286046999.7,N
1512289755.6,286046998.3,N
1512289775.4,286047000.4,N
1512289795.3,286047000.3,N
1512289815.1,286046998.1,N
1512289835.8,286047001.0,N
1512289855.7,286047003.8,N
1512289875.5,286047003.0,N
1512289895.3,286047000.7,N
1512289915.2,286047001.9,N
1512289935.9,286047003.7,N
1512289955.7,286047001.1,N
1512289975.6,286046996.7,N
1512289995.4,286046998.1,N
1512290015.2,286046998.6,N
1512290035.0,286047002.8,N
1512290036.0,286047002.8,N
1512290055.8,286046998.9,N
1512290075.6,286046998.2,N
1512290095.4,286047002.4,N
1512290115.3,286046999.9,N
1512290135.1,286047000.9,N
1512290155.8,286046997.8,N
1512290175.7,286046995.6,N
1512290195.5,286046993.3,Y
1512290215.3,286046995.9,P
1512290235.2,286046994.2,N
1512290255.9,286046994.3,N
1512290275.7,286046990.7,Y
1512290295.6,286046997.7,P
1512290315.4,286046994.2,P
1512290335.2,286046993.5,P
1512290355.1,286046992.9,Y
1512290356.0,286046992.9,P
1512290375.8,286046996.7,N
1512290395.6,286046996.1,N
1512290415.5,286046993.9,Y
1512290435.3,286046998.7,P
1512290455.1,286047000.1,N
1512290475.9,286047000.8,N
1512290495.7,286047000.9,N
1512290515.5,286047003.8,N
1512290535.4,286047005.3,N
1512290555.2,286047004.1,N
1512290575.0,286047003.4,N
1512290575.9,286047003.4,N
1512290595.8,286047005.7,N
1512290615.6,286047008.2,N
1512290635.4,286047008.6,N
1512290655.3,286047015.6,Y
1512290675.1,286047011.0,P
1512290676.0,286047011.0,N
1512290695.8,286047018.3,P
1512290715.7,286047020.4,Y
1512290735.5,286047009.2,P
1512290755.3,286047013.9,P
1512290775.2,286047014.9,P
1512290795.9,286047014.4,Y
1512290815.7,286047005.5,P
1512290835.6,286047010.3,P
1512290855.4,286047008.2,N
1512290875.2,286047013.6,Y
1512290895.1,286047003.8,P
1512290896.0,286047003.8,N
1512290915.8,286047004.6,N
1512290935.6,286047007.9,Y
1512290955.5,286047004.1,P
1512290975.3,286047001.8,N
1512290995.1,286047004.3,N
1512291015.9,286046998.2,N
1512291035.7,286046998.5,N
1512291055.5,286047002.7,N
1512291075.4,286047001.5,N
1512291095.2,286047003.3,N
1512291115.0,286047001.3,N
1512291115.9,286047001.3,N
1512291135.8,286047001.1,N
1512291155.6,286046997.7,N
1512291175.4,286046993.9,N
1512291195.2,286046992.9,N
1512291215.1,286046994.1,N
1512291216.0,286046994.1,N
1512291235.8,286046991.8,N
1512291255.6,286046990.2,N
1512291275.5,286046991.6,N
1512291295.3,286046989.8,N
1512291315.1,286046993.1,N
1512291335.9,286046993.5,N
1512291355.7,286046994.9,N
1512291375.5,286046999.1,N
1512291395.4,286047001.0,N
1512291415.2,286046998.5,N
1512291435.0,286046999.0,N
1512291435.9,286046999.0,N
1512291455.7,286046996.6,N
1512291475.6,286046996.9,N
1512291495.4,286046997.6,N
1512291515.2,286046998.4,N
1512291535.1,286047001.0,N
1512291536.0,286047001.0,N
1512291555.8,286046998.5,N
1512291575.6,286046998.1,N
1512291595.5,286046998.9,N
